Temp
-13 -13 -14 -13 -13 -14 -14 -14 -14 -14 -14 -14 -15 -14 -15 -15 -15 -15 -15 -16 -15 -15 -16 -16 -17 -17 -19 -20 -21 -22 -22 -22 -22 -21 -22 -22 -23 -23 -23 -23 -22 -22 -22
-14 -13 -13 -14 -14 -14 -14 -14 -14 -15 -14 -14 -14 -14 -14 -15 -15 -15 -15 -15 -16 -16 -17 -18 -19 -20 -22 -23 -23 -23 -23 -23 -22 -22 -22 -22 -23 -23 -23 -22 -22 -22 -22
-13 -13 -13 -13 -14 -14 -14 -14 -14 -14 -14 -14 -14 -14 -15 -15 -15 -15 -16 -16 -17 -18 -18 -19 -20 -22 -23 -23 -23 -23 -23 -22 -23 -22 -22 -22 -22 -23 -22 -23 -22 -22 -22
-14 -13 -14 -14 -14 -14 -14 -14 -13 -13 -14 -14 -15 -15 -15 -15 -15 -16 -17 -17 -18 -18 -19 -20 -21 -22 -22 -22 -22 -22 -22 -22 -22 -22 -22 -22 -23 -23 -23 -23 -23 -23 -23
-14 -14 -14 -14 -14 -14 -13 -13 -14 -14 -14 -15 -15 -15 -15 -15 -16 -17 -17 -18 -18 -18 -19 -19 -20 -20 -21 -21 -21 -21 -21 -21 -22 -22 -22 -22 -23 -23 -23 -23 -23 -24 -24
-14 -14 -14 -14 -13 -13 -14 -14 -14 -14 -14 -14 -15 -15 -15 -16 -17 -18 -18 -18 -19 -19 -19 -19 -20 -20 -20 -20 -20 -20 -21 -21 -21 -22 -22 -22 -23 -23 -23 -24 -24 -24 -24
-14 -14 -14 -13 -13 -13 -14 -14 -14 -14 -14 -15 -14 -15 -16 -18 -19 -19 -19 -19 -19 -19 -19 -20 -20 -20 -20 -20 -21 -21 -21 -21 -21 -21 -22 -23 -23 -23 -24 -24 -24 -24 -25
-14 -14 -13 -13 -14 -14 -14 -14 -14 -15 -15 -15 -14 -16 -18 -19 -19 -19 -19 -19 -19 -19 -19 -19 -20 -20 -20 -20 -20 -21 -21 -21 -22 -22 -22 -23 -23 -24 -24 -24 -24 -25 -25
-14 -14 -14 -14 -14 -14 -14 -14 -14 -15 -15 -15 -17 -19 -19 -19 -19 -20 -19 -19 -20 -20 -20 -20 -20 -20 -20 -20 -20 -21 -21 -22 -22 -22 -23 -23 -24 -24 -24 -24 -25 -25 -25
-14 -14 -14 -14 -14 -14 -14 -14 -15 -15 -16 -18 -19 -19 -20 -20 -20 -20 -20 -20 -20 -20 -20 -20 -20 -20 -20 -20 -20 -21 -21 -22 -22 -23 -24 -24 -24 -24 -24 -24 -25 -25 -25
-14 -14 -14 -14 -14 -14 -14 -15 -15 -16 -18 -20 -20 -20 -20 -20 -20 -20 -20 -20 -20 -20 -20 -20 -20 -20 -20 -20 -21 -21 -21 -21 -22 -23 -23 -24 -24 -24 -25 -25 -25 -25 -26
-14 -14 -14 -14 -14 -14 -15 -15 -16 -18 -20 -21 -21 -20 -20 -20 -20 -20 -20 -20 -20 -20 -20 -20 -20 -20 -21 -21 -21 -21 -22 -22 -22 -23 -23 -24 -24 -25 -25 -25 -26 -26 -26
-15 -15 -15 -14 -14 -15 -15 -16 -18 -20 -21 -21 -21 -21 -21 -21 -20 -20 -20 -20 -20 -20 -20 -20 -20 -21 -21 -21 -21 -22 -22 -22 -22 -23 -23 -24 -24 -25 -25 -26 -26 -26 -26
-15 -15 -14 -14 -15 -15 -16 -17 -20 -22 -22 -22 -22 -22 -21 -21 -21 -21 -20 -20 -20 -20 -20 -20 -21 -21 -21 -21 -22 -22 -22 -22 -23 -23 -24 -24 -25 -25 -25 -26 -26 -26 -26
-15 -15 -14 -15 -15 -16 -16 -19 -21 -23 -23 -22 -22 -22 -22 -22 -21 -21 -21 -21 -21 -21 -21 -21 -21 -21 -21 -21 -22 -22 -23 -23 -23 -24 -24 -24 -25 -25 -25 -26 -26 -26 -26
-15 -15 -15 -15 -15 -16 -18 -21 -23 -23 -23 -23 -22 -22 -22 -22 -21 -21 -21 -21 -21 -21 -21 -21 -21 -21 -22 -22 -22 -23 -23 -24 -24 -24 -24 -24 -25 -25 -25 -26 -26 -26 -26
-15 -15 -15 -15 -16 -17 -20 -22 -24 -24 -23 -23 -23 -22 -22 -22 -21 -21 -21 -21 -21 -21 -21 -22 -22 -22 -22 -23 -23 -24 -24 -24 -25 -25 -25 -25 -25 -26 -26 -26 -26 -26 -26
-15 -15 -15 -16 -16 -18 -21 -23 -23 -24 -24 -24 -23 -23 -22 -22 -22 -21 -21 -21 -21 -21 -22 -22 -23 -23 -23 -24 -24 -25 -25 -26 -26 -26 -25 -25 -25 -26 -26 -26 -26 -26 -26
-15 -15 -16 -16 -17 -19 -22 -23 -23 -24 -24 -23 -23 -23 -22 -22 -21 -21 -22 -22 -22 -22 -22 -23 -23 -23 -24 -24 -25 -26 -26 -27 -27 -27 -26 -26 -26 -26 -26 -26 -26 -26 -26
-15 -16 -16 -16 -17 -19 -22 -23 -23 -24 -24 -23 -23 -23 -23 -22 -22 -22 -22 -22 -22 -23 -23 -23 -23 -23 -24 -25 -26 -26 -27 -28 -28 -27 -27 -26 -26 -26 -26 -26 -26 -26 -26
-15 -16 -16 -16 -17 -20 -22 -23 -23 -24 -24 -23 -23 -23 -23 -23 -22 -22 -23 -23 -23 -23 -23 -24 -24 -25 -26 -27 -26 -27 -27 -28 -27 -27 -27 -26 -26 -26 -26 -26 -26 -26 -26
-16 -16 -16 -16 -17 -20 -22 -23 -23 -24 -24 -24 -23 -23 -23 -23 -23 -23 -23 -23 -23 -24 -24 -25 -25 -26 -26 -27 -27 -27 -27 -27 -28 -27 -27 -26 -26 -27 -26 -26 -26 -26 -26
-16 -16 -16 -16 -17 -20 -22 -23 -23 -24 -24 -23 -23 -23 -23 -23 -23 -23 -23 -24 -24 -25 -26 -27 -27 -26 -26 -26 -26 -26 -26 -27 -27 -27 -26 -26 -26 -27 -27 -27 -27 -27 -27
-16 -16 -16 -16 -17 -19 -22 -23 -23 -23 -23 -23 -23 -23 -24 -24 -24 -23 -24 -24 -25 -27 -27 -28 -27 -27 -26 -26 -26 -26 -26 -26 -26 -26 -26 -26 -27 -27 -27 -27 -27 -27 -26
-16 -16 -17 -17 -17 -19 -21 -23 -23 -23 -23 -23 -23 -24 -24 -24 -24 -24 -25 -25 -26 -27 -28 -28 -28 -28 -27 -27 -26 -26 -26 -26 -26 -26 -26 -26 -27 -27 -27 -27 -27 -27 -27
-16 -16 -17 -17 -17 -19 -21 -22 -23 -23 -24 -23 -24 -24 -24 -24 -24 -24 -25 -26 -27 -27 -28 -28 -28 -28 -28 -28 -28 -27 -27 -27 -27 -27 -27 -28 -28 -27 -27 -27 -27 -27 -27
Height
5735 5734 5734 5735 5736 5735 5734 5733 5733 5731 5727 5723 5720 5717 5712 5707 5702 5697 5691 5685 5678 5671 5663 5656 5647 5639 5631 5624 5617 5612 5607 5601 5600 5601 5594 5588 5585 5582 5580 5579 5579 5580 5580
5734 5733 5732 5732 5731 5729 5728 5726 5723 5720 5717 5712 5709 5705 5699 5694 5688 5681 5673 5666 5659 5650 5641 5632 5623 5615 5608 5602 5598 5594 5590 5585 5584 5583 5582 5578 5575 5572 5570 5568 5568 5567 5567
5730 5729 5728 5727 5725 5724 5722 5720 5715 5710 5707 5702 5697 5690 5683 5676 5668 5659 5652 5645 5637 5629 5620 5611 5604 5598 5593 5589 5585 5582 5578 5576 5574 5573 5571 5568 5565 5561 5560 5558 5556 5555 5554
5727 5726 5725 5723 5721 5718 5714 5710 5706 5700 5695 5688 5681 5673 5664 5656 5648 5641 5634 5627 5620 5612 5605 5598 5593 5588 5584 5580 5577 5575 5572 5569 5566 5563 5560 5557 5554 5551 5549 5546 5545 5543 5541
5720 5719 5717 5715 5712 5709 5706 5701 5694 5688 5681 5674 5666 5658 5649 5641 5632 5625 5619 5612 5606 5601 5594 5589 5585 5582 5578 5574 5571 5569 5565 5562 5558 5554 5550 5547 5545 5541 5538 5536 5534 5532 5529
5713 5712 5710 5707 5705 5701 5694 5689 5684 5677 5670 5662 5652 5642 5631 5621 5612 5605 5601 5598 5594 5590 5586 5582 5578 5574 5571 5568 5564 5560 5557 5554 5550 5546 5542 5539 5536 5533 5529 5527 5524 5523 5521
5709 5706 5703 5701 5698 5692 5687 5680 5673 5665 5656 5646 5635 5623 5610 5600 5593 5589 5588 5587 5584 5581 5577 5574 5571 5567 5564 5560 5556 5552 5548 5545 5540 5537 5534 5531 5528 5523 5521 5518 5515 5514 5512
5703 5701 5698 5694 5689 5683 5676 5669 5661 5651 5641 5629 5616 5603 5591 5585 5581 5579 5579 5577 5575 5572 5569 5566 5562 5559 5555 5551 5548 5544 5540 5536 5531 5528 5524 5522 5518 5514 5511 5509 5507 5505 5502
5697 5695 5691 5685 5680 5673 5666 5657 5648 5636 5624 5611 5597 5588 5582 5576 5575 5572 5570 5568 5566 5563 5560 5557 5553 5550 5546 5542 5539 5535 5531 5526 5521 5517 5514 5511 5507 5504 5501 5499 5497 5494 5493
5690 5687 5683 5677 5671 5663 5654 5644 5633 5620 5606 5593 5586 5580 5575 5570 5567 5564 5561 5559 5558 5555 5552 5548 5544 5541 5537 5533 5528 5525 5521 5516 5511 5507 5502 5498 5496 5493 5491 5489 5487 5484 5481
5683 5679 5674 5668 5660 5650 5640 5629 5616 5602 5589 5582 5576 5571 5566 5562 5558 5555 5552 5550 5548 5545 5542 5539 5535 5531 5527 5522 5518 5514 5510 5505 5501 5497 5492 5488 5485 5483 5480 5478 5477 5475 5472
5675 5670 5665 5657 5648 5637 5625 5613 5598 5585 5576 5570 5564 5560 5556 5552 5548 5545 5543 5540 5537 5535 5532 5529 5525 5520 5516 5512 5507 5502 5497 5493 5489 5484 5480 5477 5474 5472 5471 5469 5468 5467 5464
5667 5661 5654 5646 5636 5624 5611 5596 5582 5571 5564 5559 5555 5550 5545 5541 5537 5535 5532 5530 5527 5523 5521 5518 5514 5510 5506 5502 5497 5492 5487 5482 5476 5472 5468 5465 5463 5462 5462 5460 5460 5460 5457
5659 5653 5645 5636 5624 5611 5596 5581 5566 5557 5551 5548 5544 5540 5536 5531 5527 5524 5522 5519 5516 5513 5510 5507 5503 5499 5496 5491 5486 5480 5474 5469 5464 5460 5457 5454 5452 5452 5452 5452 5453 5453 5452
5652 5645 5636 5625 5613 5598 5581 5566 5553 5545 5540 5537 5534 5530 5526 5522 5518 5515 5512 5509 5506 5502 5500 5495 5491 5487 5482 5477 5472 5467 5463 5458 5454 5449 5445 5442 5441 5442 5443 5444 5446 5446 5446
5644 5636 5626 5615 5601 5585 5568 5552 5541 5536 5531 5528 5525 5522 5518 5514 5511 5507 5504 5500 5496 5494 5490 5486 5482 5477 5472 5467 5461 5456 5451 5446 5442 5437 5434 5432 5432 5433 5434 5437 5438 5439 5439
5636 5627 5617 5605 5590 5573 5557 5545 5535 5527 5523 5521 5517 5513 5510 5507 5504 5501 5497 5493 5489 5486 5481 5477 5472 5467 5461 5456 5450 5445 5439 5434 5430 5427 5424 5422 5422 5424 5426 5429 5432 5433 5434
5628 5619 5608 5595 5579 5563 5549 5539 5531 5525 5519 5514 5510 5507 5503 5499 5496 5494 5490 5486 5482 5478 5474 5468 5462 5457 5450 5444 5438 5432 5426 5422 5418 5416 5414 5413 5414 5416 5418 5423 5426 5427 5428
5621 5612 5600 5587 5571 5556 5544 5534 5526 5520 5515 5511 5506 5501 5497 5493 5490 5486 5483 5479 5474 5469 5463 5457 5451 5444 5437 5430 5423 5418 5413 5409 5406 5405 5404 5404 5406 5409 5412 5417 5420 5422 5423
5615 5606 5594 5580 5565 5551 5539 5531 5522 5516 5511 5507 5503 5498 5493 5488 5483 5479 5475 5471 5466 5461 5455 5448 5440 5432 5425 5417 5411 5405 5401 5397 5396 5395 5395 5396 5398 5402 5407 5411 5414 5417 5418
5610 5600 5589 5575 5561 5547 5536 5528 5519 5512 5507 5503 5499 5494 5490 5485 5479 5475 5471 5466 5460 5454 5446 5438 5430 5422 5415 5409 5404 5399 5394 5391 5389 5388 5388 5389 5393 5397 5403 5407 5410 5412 5413
5605 5595 5585 5571 5557 5544 5533 5525 5516 5509 5505 5501 5496 5491 5486 5481 5476 5472 5467 5461 5453 5446 5438 5430 5421 5413 5406 5401 5397 5393 5389 5385 5383 5383 5383 5385 5390 5393 5399 5403 5405 5407 5408
5601 5591 5581 5568 5555 5542 5531 5523 5514 5507 5502 5498 5494 5488 5483 5478 5474 5469 5462 5456 5449 5440 5432 5423 5415 5409 5404 5399 5394 5390 5386 5383 5382 5381 5382 5385 5388 5392 5396 5399 5401 5403 5403
5596 5588 5578 5566 5552 5539 5529 5521 5513 5506 5500 5496 5491 5486 5481 5477 5472 5466 5459 5452 5444 5437 5429 5422 5415 5409 5404 5400 5395 5391 5387 5384 5383 5383 5384 5386 5387 5391 5395 5396 5397 5398 5398
5592 5584 5575 5564 5550 5538 5527 5519 5512 5504 5499 5495 5489 5484 5480 5475 5470 5464 5457 5450 5443 5436 5430 5425 5418 5412 5408 5403 5399 5395 5391 5389 5387 5387 5387 5387 5388 5390 5392 5394 5394 5394 5393
5589 5581 5572 5562 5549 5537 5526 5518 5510 5504 5499 5493 5488 5484 5480 5475 5468 5463 5456 5450 5444 5438 5433 5428 5423 5418 5413 5408 5403 5399 5396 5392 5390 5389 5388 5388 5390 5391 5391 5391 5390 5389 5388
Wind_Speed
28 31 34 32 30 29 29 32 35 37 39 42 45 47 50 55 58 61 63 66 69 73 77 80 83 84 84 81 77 73 68 66 61 55 55 50 43 42 43 44 45 46 47
27 27 28 28 30 31 35 37 39 41 44 45 48 53 56 59 61 64 68 71 74 76 78 80 80 77 68 61 57 52 50 50 44 31 35 38 41 43 43 42 42 42 43
22 25 27 30 33 35 36 39 42 42 46 52 56 58 61 64 67 71 73 75 74 74 72 71 62 51 45 44 43 44 41 33 36 35 35 38 40 42 43 43 45 45 44
23 26 28 31 33 35 38 39 43 49 54 57 60 64 68 72 75 75 75 72 67 61 55 46 39 35 34 31 28 30 32 33 35 35 36 37 37 39 40 42 42 41 40
24 27 29 31 34 35 38 44 49 53 57 61 66 70 75 78 78 76 70 61 50 40 31 25 24 26 28 29 27 29 31 33 34 34 34 34 32 34 36 36 34 35 34
26 28 31 33 33 39 44 49 52 56 61 67 71 76 81 82 78 68 58 42 29 26 26 26 28 29 30 31 32 32 33 33 32 32 33 33 31 32 33 32 32 32 33
28 29 30 32 37 42 46 50 55 61 65 69 75 80 82 74 62 50 35 26 26 26 27 29 29 30 32 31 33 34 34 34 34 34 33 32 32 32 32 32 34 34 34
27 27 31 36 40 44 48 54 59 63 69 75 78 77 62 48 37 28 28 28 26 28 29 30 31 32 33 32 32 33 33 33 34 35 36 35 33 33 33 34 34 34 35
25 29 33 37 41 46 52 56 62 68 71 71 64 45 36 28 28 28 29 28 28 28 31 32 33 31 32 33 32 32 34 35 36 37 37 37 37 37 35 34 34 34 35
26 30 34 39 44 50 55 59 65 68 67 52 38 33 32 31 31 30 30 31 30 29 31 33 36 35 34 34 35 34 33 35 37 40 40 41 40 38 37 35 34 34 36
28 32 37 42 49 54 59 65 67 64 56 40 36 34 33 33 33 32 32 31 31 30 32 34 36 36 36 36 36 36 38 39 39 41 42 41 39 37 35 33 30 26 22
31 35 40 46 53 58 63 69 65 59 44 37 34 34 35 34 35 35 34 34 34 33 33 34 36 37 37 38 39 40 43 43 43 44 41 38 36 33 31 28 21 20 22
34 38 43 50 56 62 67 68 62 52 41 37 35 34 35 38 38 36 35 33 34 35 36 36 36 36 37 38 39 41 43 44 42 39 37 36 34 32 29 24 20 18 19
36 41 46 53 59 65 69 65 57 46 39 35 34 34 35 36 36 32 32 33 35 36 35 35 35 36 36 38 39 40 42 40 38 38 37 33 31 30 27 21 21 19 18
38 43 49 56 62 69 70 61 50 41 36 32 32 33 33 32 31 32 33 33 34 34 33 34 34 36 38 39 41 41 39 38 38 38 33 30 28 28 27 21 22 19 17
40 45 52 58 65 70 63 53 45 35 32 29 29 30 28 28 30 31 31 30 32 32 31 32 34 37 39 40 41 39 39 39 38 34 30 27 25 25 25 22 21 18 15
41 47 54 60 66 66 57 46 37 33 29 27 28 28 26 26 27 27 27 29 30 30 31 34 37 39 40 41 40 40 40 40 36 32 29 26 23 23 23 23 20 17 14
42 48 55 61 66 64 52 42 34 29 29 31 31 29 28 28 27 25 26 28 30 31 32 35 36 38 40 41 42 42 40 36 34 30 27 22 22 23 22 22 17 14 10
43 49 56 62 66 59 46 40 34 29 28 28 30 30 27 27 26 26 26 27 29 31 33 36 39 41 43 43 43 41 39 36 33 30 25 21 21 22 22 21 17 14 12
43 50 56 62 64 55 43 39 36 29 29 28 28 28 28 28 28 29 29 29 30 31 34 38 41 41 41 39 35 31 29 25 24 22 21 20 21 21 24 21 18 15 17
43 49 56 61 61 52 41 38 38 29 27 27 27 27 27 26 26 25 26 27 30 34 36 36 39 38 36 29 29 27 24 22 21 17 16 16 19 23 25 21 18 17 17
42 48 54 59 60 53 41 38 39 29 25 26 26 26 26 24 22 23 26 31 34 34 37 38 38 34 29 23 23 22 21 18 13 10 11 13 16 24 24 21 18 15 15
41 46 52 57 58 52 42 39 38 29 25 25 25 27 26 23 23 27 32 31 33 36 37 35 30 24 22 23 22 20 15 10 9 7 5 10 12 23 22 19 17 16 15
40 45 49 54 57 51 42 39 37 29 26 26 26 27 24 23 27 31 30 32 34 33 31 30 27 23 21 21 19 19 15 11 7 2 4 4 13 20 18 16 16 16 16
38 43 47 52 56 52 43 38 36 29 26 26 27 24 22 26 30 28 31 30 30 28 27 27 27 25 21 20 18 17 15 12 8 4 2 4 16 17 16 15 15 15 16
37 41 45 49 54 51 44 37 35 29 26 27 24 21 23 28 26 27 28 28 27 22 23 24 26 26 25 24 24 23 20 19 16 11 4 7 12 11 14 16 17 19 22
Wind_Direction
257 276 295 299 297 298 296 294 293 293 294 293 292 293 295 295 296 295 294 295 297 298 298 297 295 294 292 292 292 290 290 288 289 289 286 283 283 283 283 282 280 278 276
282 284 288 292 293 294 294 297 298 296 295 298 297 297 296 294 294 296 299 300 299 299 298 298 296 296 296 293 293 292 291 293 296 291 290 288 287 285 284 284 285 285 283
279 284 287 290 292 295 297 296 297 299 299 298 297 298 299 300 300 301 301 301 302 301 299 299 300 299 298 300 301 298 296 293 294 296 294 290 288 286 284 285 284 284 284
277 282 286 290 293 295 298 300 300 300 301 302 303 304 304 303 301 301 300 301 299 298 300 305 306 307 308 311 306 300 297 297 297 298 295 293 293 291 290 287 287 285 283
283 286 290 294 298 298 299 300 303 305 307 307 305 304 302 300 298 297 299 296 294 294 302 311 310 309 309 308 304 296 293 294 296 295 294 296 295 293 290 290 291 289 286
289 293 296 298 298 299 304 307 307 306 305 305 304 303 300 298 298 296 293 289 287 295 302 304 305 304 303 302 300 299 297 296 296 294 293 295 295 294 294 294 292 288 287
291 292 295 296 299 303 304 305 306 306 306 308 308 304 299 299 295 291 284 279 285 289 292 296 297 297 297 297 296 298 297 296 295 295 296 293 292 291 291 289 288 289 287
287 290 294 299 303 304 305 305 305 307 308 311 309 301 301 298 292 284 282 282 283 285 288 291 292 292 292 294 294 295 296 296 293 293 293 290 289 287 286 287 289 290 288
289 294 301 303 303 304 306 306 309 311 313 309 304 303 300 297 291 286 284 283 283 282 283 287 288 290 291 293 296 295 295 297 298 296 295 290 286 287 290 290 292 290 288
294 297 299 301 304 306 309 312 312 315 311 306 299 299 295 292 290 289 286 284 283 281 281 285 288 291 293 294 297 300 301 296 296 296 293 289 287 284 285 289 293 296 295
295 299 304 306 309 311 314 315 319 316 310 298 296 296 294 293 291 290 289 288 286 284 284 285 287 290 292 295 296 299 301 300 298 295 295 294 291 288 285 288 293 294 304
303 305 308 311 313 315 317 320 320 313 298 291 292 292 292 292 291 290 289 288 288 286 286 287 288 289 292 294 295 298 300 301 299 297 294 290 286 284 282 284 281 290 301
307 311 312 315 317 319 321 324 317 308 293 291 292 292 292 291 290 289 288 286 289 291 289 290 290 290 291 292 294 297 298 298 298 297 294 288 282 279 278 277 271 286 297
312 314 318 319 321 322 326 325 315 305 295 292 293 294 294 293 291 291 290 291 293 293 292 294 292 294 296 297 299 300 301 300 300 299 295 290 279 272 271 260 262 279 289
316 320 321 323 324 326 330 323 316 308 300 296 296 298 297 294 294 295 297 298 297 296 299 298 299 302 303 303 302 301 300 298 299 298 294 286 275 266 264 247 256 274 276
321 324 325 326 328 331 333 326 321 315 308 303 302 303 299 293 294 296 297 298 299 300 299 298 299 301 301 300 300 300 299 299 300 296 293 282 270 258 256 238 252 266 270
326 326 328 331 333 339 337 333 328 324 317 313 313 312 307 302 299 296 294 295 298 300 299 299 300 301 300 301 300 299 298 298 295 292 291 282 260 250 245 233 247 261 267
329 329 331 334 339 343 341 339 334 329 326 322 321 318 314 311 307 303 300 299 299 300 299 299 301 302 303 302 301 300 298 294 290 288 287 276 252 241 228 229 238 246 255
331 332 334 338 344 346 342 342 338 333 329 325 324 322 318 316 315 312 308 307 307 309 311 311 309 308 307 306 304 301 297 292 287 284 281 267 247 241 213 222 223 233 235
333 334 337 341 346 346 343 344 341 334 331 328 326 325 323 320 320 319 319 319 319 318 315 313 313 313 312 312 313 313 309 300 292 281 272 259 234 226 208 215 224 242 242
334 335 340 344 348 348 345 343 342 336 333 331 328 328 327 323 321 322 323 323 321 320 321 321 319 318 317 312 316 317 313 305 297 279 283 244 223 209 208 219 233 245 247
336 338 342 346 350 349 346 344 343 340 337 334 330 329 332 332 330 330 331 329 330 331 329 327 324 325 327 324 325 322 316 309 303 287 279 221 226 200 211 224 232 246 248
337 340 345 347 351 351 348 347 347 346 343 341 340 339 338 339 342 341 337 337 338 338 339 341 343 346 348 343 342 341 340 334 323 309 219 203 243 196 217 231 241 248 253
339 342 346 349 353 353 351 350 351 349 347 346 343 341 342 346 346 342 343 345 348 351 357 2 2 359 359 3 7 14 10 2 14 68 166 297 202 203 224 239 249 256 265
341 343 348 353 355 355 353 352 352 350 349 348 345 346 348 349 346 348 350 354 357 6 13 16 18 20 18 17 19 17 22 28 33 25 312 260 199 214 232 250 262 268 275
341 345 349 355 356 356 355 353 353 351 350 350 350 349 350 349 351 354 357 2 7 14 19 19 23 25 27 28 27 25 26 27 26 24 4 216 210 236 254 262 268 274 284